This is the latest recevied weather packets stored in our database for station/object NC4J. If no packets are shown the sender has not sent any weather packets the latest 10 day(s).
| Time | Temp. | Humidity | Pressure | Rain* | Wind** | Luminosity | Snow |
|---|---|---|---|---|---|---|---|
| 1777720818 | 10° C | 68% | 1013.4 hPa | 0 mm | - | 7 W/m² | - |
| 1777720515 | 10° C | 69% | 1013.4 hPa | 0 mm | - | 5 W/m² | - |
| 1777720212 | 10° C | 69% | 1013.3 hPa | 0 mm | - | 7 W/m² | - |
| 1777719909 | 10° C | 69% | 1013.6 hPa | 0 mm | - | 5 W/m² | - |
| 1777719607 | 10° C | 69% | 1013.7 hPa | 0 mm | - | 6 W/m² | - |
| 1777719304 | 10° C | 69% | 1013.6 hPa | 0 mm | - | 3 W/m² | - |
| 1777719002 | 10° C | 70% | 1013.6 hPa | 0 mm | - | 2 W/m² | - |
| 1777718699 | 10° C | 69% | 1013.4 hPa | 0 mm | - | 1 W/m² | - |
| 1777718396 | 10° C | 70% | 1013.4 hPa | 0 mm | - | 1 W/m² | - |
| 1777718093 | 10° C | 69% | 1013.3 hPa | 0 mm | - | 0 W/m² | - |
| 1777717790 | 10° C | 69% | 1013.4 hPa | 0 mm | - | 0 W/m² | - |
| 1777717487 | 10° C | 70% | 1013.3 hPa | 0 mm | - | 0 W/m² | - |
| 1777717184 | 10° C | 70% | 1013.4 hPa | 0 mm | - | 0 W/m² | - |
| 1777716883 | 10° C | 71% | 1013.3 hPa | 0 mm | - | 0 W/m² | - |
| 1777716580 | 10.56° C | 69% | 1013.3 hPa | 0 mm | - | 0 W/m² | - |
| 1777716279 | 10.56° C | 70% | 1013.3 hPa | 0 mm | - | 0 W/m² | - |
| 1777715977 | 10.56° C | 71% | 1012.8 hPa | 0 mm | - | 0 W/m² | - |
| 1777715674 | 10.56° C | 70% | 1013 hPa | 0 mm | - | 0 W/m² | - |
| 1777715372 | 10.56° C | 70% | 1013.3 hPa | 0 mm | - | 0 W/m² | - |
| 1777715069 | 10.56° C | 69% | 1013.3 hPa | 0 mm | - | 0 W/m² | - |
| 1777714767 | 10.56° C | 70% | 1013.5 hPa | 0 mm | - | 0 W/m² | - |
| 1777714466 | 10.56° C | 70% | 1013.2 hPa | 0 mm | - | 0 W/m² | - |
| 1777714162 | 10.56° C | 69% | 1013.3 hPa | 0 mm | - | 0 W/m² | - |
| 1777713860 | 10.56° C | 69% | 1013.5 hPa | 0 mm | - | 0 W/m² | - |
| 1777713558 | 10.56° C | 69% | 1013.7 hPa | 0 mm | - | 0 W/m² | - |
* Rain latest hour (hover to see other rain measurements)
** Current wind speed in m/s (hover to see current wind gust speed)